Dewpoint
-7 -7 -7 -7 -6 -6 -6 -6 -5 -5 -5 -4 -2 -1 -1 -0 0 0 2 2 5 10 16 18 20 22 23 24 24 24 24 25 25 26 25 25 25 28 30 30 28 27 26 25 28 25 23 25 27 27 29 29 29 29 29 30 31 31 28 28 30 31 31
-5 -5 -6 -6 -5 -5 -5 -2 -1 -1 -1 -1 -1 -0 1 2 3 2 2 4 8 15 20 21 22 22 23 24 25 25 25 26 26 27 26 25 26 26 27 29 30 27 27 26 26 23 21 22 27 26 29 29 29 29 29 28 28 28 29 29 28 28 30
-3 -3 -3 -3 -4 -4 -2 -0 3 4 7 7 6 6 4 4 4 4 7 12 16 18 19 19 21 23 24 24 24 25 26 27 27 27 27 27 28 28 27 29 31 29 28 28 28 26 22 20 23 25 26 29 29 29 29 29 29 29 28 29 28 27 28
-2 -3 -3 -3 -2 2 -2 -2 -2 -0 5 5 8 12 13 13 14 15 16 17 17 18 18 19 20 22 24 25 24 25 25 26 27 26 27 28 29 29 28 26 29 31 30 27 28 28 24 20 21 23 25 28 29 29 29 29 30 30 29 28 28 26 26
-1 -1 -1 -2 -2 -1 -2 -1 -1 -0 -0 1 3 6 10 11 12 13 14 15 15 17 17 18 19 20 23 25 25 25 25 26 26 27 28 27 27 26 28 29 29 29 30 30 28 28 26 22 21 22 23 27 27 29 29 29 30 30 29 29 29 28 27
1 1 -0 -1 -1 -1 -0 -0 0 1 1 1 1 3 8 9 10 10 12 14 15 16 18 19 19 20 21 24 25 25 25 26 28 29 28 27 27 28 29 28 29 29 29 29 28 27 26 23 21 21 23 26 27 27 27 28 29 30 30 29 29 29 29
3 3 2 2 2 2 2 2 2 3 2 2 2 7 8 8 9 8 10 11 13 15 17 18 19 20 22 23 25 26 27 27 28 29 30 29 29 29 29 29 29 29 29 29 28 29 28 25 22 22 21 24 27 27 27 27 27 27 28 29 29 28 29
5 4 5 4 4 4 4 4 4 4 4 6 8 8 9 9 10 10 10 10 12 14 15 16 17 19 21 23 25 27 27 28 27 29 29 29 30 29 30 30 30 29 29 28 29 28 27 26 23 23 23 24 25 26 26 27 26 25 25 26 28 28 28
7 7 7 6 6 6 7 8 8 8 8 8 9 9 9 9 10 10 10 10 12 14 15 16 16 19 20 23 26 26 28 29 29 28 28 28 29 30 30 29 29 29 28 28 27 26 27 26 25 23 23 22 23 24 23 25 26 26 27 26 26 27 29
8 9 9 8 9 9 9 9 9 11 15 15 11 10 10 10 10 10 10 11 11 12 14 16 17 19 21 24 26 26 27 29 30 30 29 28 28 29 28 29 28 27 27 27 26 26 25 26 26 24 23 23 22 23 23 24 25 25 25 26 25 26 27
9 9 9 10 10 10 10 11 11 16 18 19 20 16 13 12 12 12 12 12 12 13 13 15 18 21 22 23 25 26 27 28 30 30 30 30 30 29 29 28 28 28 27 26 26 26 27 26 26 24 23 23 23 22 22 23 23 24 25 24 23 22 24
9 10 10 11 11 11 11 11 15 18 20 20 21 20 17 16 15 15 16 16 16 15 16 16 17 20 22 24 25 26 27 27 29 29 30 30 31 30 30 30 29 28 27 27 27 27 27 28 27 26 25 25 24 23 23 24 24 24 24 23 23 23 24
9 10 11 11 12 12 12 13 17 20 21 22 22 22 21 18 17 17 16 17 17 18 18 18 18 20 22 24 24 25 26 27 27 28 29 29 30 30 30 30 30 31 30 29 28 27 27 27 29 27 25 26 25 24 25 25 24 25 24 24 23 23 25
10 11 12 12 12 13 13 14 17 21 22 23 23 23 23 20 20 19 18 18 18 18 19 19 19 19 21 23 24 25 26 26 26 26 27 28 28 29 29 30 31 31 31 30 29 29 27 29 29 28 29 28 27 26 25 24 24 25 25 25 24 25 26
11 12 13 13 14 14 14 15 20 22 23 24 25 25 24 22 21 20 20 19 19 19 19 20 20 20 20 22 24 24 26 26 26 26 26 26 27 27 28 29 30 31 31 31 31 30 29 30 30 30 30 30 28 28 27 27 27 27 26 27 27 25 26
12 12 13 13 15 15 15 16 21 22 24 25 26 26 26 24 23 21 21 20 20 20 20 20 21 21 21 21 23 24 25 25 26 26 26 25 26 26 27 29 30 31 32 32 31 31 30 29 29 30 29 29 28 28 28 26 26 27 26 24 23 22 24
11 12 13 14 15 15 15 16 19 22 24 25 26 26 24 26 25 23 22 21 21 20 20 21 22 22 21 22 23 24 25 24 26 26 25 25 25 26 26 26 29 31 31 31 32 32 32 31 31 31 31 31 29 28 27 25 24 24 24 23 22 22 22
10 12 13 14 14 16 16 17 19 22 24 25 25 25 25 24 24 25 23 22 22 21 21 22 23 23 22 22 23 24 25 24 25 26 25 25 25 25 25 25 28 29 31 31 31 32 32 31 30 31 32 31 30 29 28 25 23 24 24 22 22 21 21
11 12 13 14 15 18 18 18 20 22 23 25 25 24 24 24 24 25 24 23 22 22 21 22 23 24 24 23 23 24 25 24 25 26 26 25 25 24 24 25 27 28 29 29 30 30 31 31 31 31 31 31 30 29 28 28 27 25 23 22 22 22 21
12 13 14 16 17 18 19 19 20 21 24 25 25 24 24 23 23 24 24 25 23 22 23 23 23 24 25 26 25 25 25 25 26 27 26 26 24 24 24 27 28 29 29 29 29 29 29 30 31 30 31 31 30 30 29 28 28 26 25 23 22 22 21
13 14 15 17 18 19 20 21 22 22 24 25 24 24 23 23 23 24 24 23 23 24 24 24 23 24 25 26 26 27 27 27 27 27 27 27 25 26 27 28 27 28 30 29 29 29 29 29 29 30 29 30 29 29 29 28 28 28 26 24 23 22 21
14 14 16 18 19 21 21 22 23 23 24 25 25 24 23 21 22 24 24 23 22 23 23 23 24 26 27 27 27 28 28 28 28 28 27 27 28 28 28 28 27 27 28 28 28 27 27 28 28 28 28 29 29 28 28 28 28 27 27 26 26 23 21
14 16 17 18 18 20 21 23 23 24 24 24 25 25 25 23 22 23 24 24 22 22 22 23 24 24 25 26 27 28 29 30 30 29 29 30 30 30 30 29 27 27 27 27 27 26 26 25 27 27 27 28 28 27 27 27 27 27 26 22 21 21 23
15 16 17 17 17 19 20 22 23 23 24 25 25 26 26 25 23 22 23 23 22 21 22 23 23 24 24 24 25 26 27 28 29 29 30 31 30 31 31 30 29 28 27 27 26 26 25 24 25 27 27 27 27 27 27 25 24 22 21 19 16 16 15
16 15 16 16 17 18 20 22 24 24 24 25 25 26 26 26 26 25 25 23 22 23 24 23 23 23 24 25 25 26 26 26 27 27 28 29 30 31 30 29 28 27 26 26 25 25 25 25 26 27 27 28 25 20 19 17 15 16 15 14 13 12 11
14 14 16 16 17 18 20 23 23 23 24 24 24 24 24 24 24 25 26 26 26 26 26 26 26 26 26 26 26 25 25 25 26 27 28 29 29 28 28 29 28 27 26 25 25 25 24 24 26 27 26 23 20 18 16 15 14 14 14 15 15 12 10
14 14 15 16 17 19 21 22 22 22 22 23 22 22 22 21 21 22 22 22 22 23 23 24 25 25 26 26 26 25 25 24 24 24 24 25 26 26 26 27 29 28 26 26 25 25 24 24 25 23 21 21 20 18 17 16 15 16 15 16 15 12 10
14 15 15 16 17 19 19 20 21 22 21 22 22 22 22 21 21 20 20 20 20 21 22 22 22 22 21 22 21 21 21 20 20 20 20 21 23 25 26 27 30 30 27 26 26 25 24 23 22 22 21 22 21 18 17 17 17 16 15 15 14 12 9
14 16 17 17 17 18 18 18 20 21 23 22 23 22 21 20 20 20 20 22 23 21 20 20 19 18 18 18 18 18 17 16 16 17 17 17 18 19 21 25 26 28 26 26 25 25 23 22 23 22 21 21 19 17 16 17 17 16 15 14 16 13 9
16 17 17 16 17 19 19 19 21 23 23 22 22 22 23 23 22 22 22 22 21 19 17 16 16 16 16 16 16 16 15 15 15 15 14 13 15 14 16 17 21 26 26 25 25 24 22 22 22 21 20 20 18 16 16 16 17 15 15 15 16 11 10
18 19 19 17 16 18 20 21 22 22 22 22 22 22 22 22 22 22 22 21 17 15 15 15 15 15 15 14 14 14 13 13 13 13 12 13 13 12 12 13 14 15 20 25 25 22 21 22 21 20 19 19 16 15 15 15 14 14 14 14 13 11 9
17 18 19 18 18 18 17 19 21 21 21 21 21 21 21 21 21 21 20 19 17 13 12 12 12 13 12 12 12 12 12 11 11 11 10 10 11 10 10 11 12 14 16 20 22 21 20 20 20 20 18 15 14 14 14 14 13 13 14 14 12 10 8
15 16 17 17 18 19 19 19 20 20 21 21 20 20 19 19 20 20 18 16 12 11 11 11 11 11 11 11 10 10 9 9 9 9 10 10 10 10 10 11 13 14 14 14 15 17 18 18 19 18 17 15 14 13 13 12 13 14 14 12 11 8 7
12 14 15 15 16 18 18 18 19 20 20 20 19 18 17 15 14 17 17 13 9 9 9 9 10 10 9 10 9 9 9 9 9 9 10 10 10 10 11 12 12 12 12 12 12 12 11 11 12 11 11 11 12 12 12 12 12 12 11 10 8 7 6
3 7 11 10 11 15 16 17 17 18 18 18 18 17 15 12 8 7 7 8 8 8 7 7 7 8 8 8 8 7 7 7 7 7 8 9 10 10 10 10 10 10 10 10 10 10 10 10 10 11 10 10 10 11 11 11 11 11 10 10 8 6 4
1 2 7 9 10 13 14 15 15 15 16 16 16 15 13 7 6 6 6 6 6 7 7 7 6 7 7 7 6 5 4 4 6 6 7 7 7 9 9 9 9 9 9 9 9 9 10 10 10 9 10 10 10 10 10 9 10 9 9 9 6 5 2